Wetbulb
34.78 33.90 33.80 34.01 33.45 34.15 31.99 32.53 28.55 30.92 31.24 34.23 37.18 38.22 38.40 38.83 38.35 36.75 35.22 34.97 34.49 34.12 33.93 34.06 33.87 34.75 35.52 35.62 35.04 34.81 33.72 32.86 32.69 33.76 34.26 34.03 34.48 35.19 36.87 37.82 38.62 38.61 40.58 42.60
30.03 33.84 33.08 30.52 32.51 32.85 33.14 33.22 32.45 32.39 31.43 37.14 36.88 37.32 35.65 35.57 34.90 33.35 32.90 32.54 32.68 32.63 32.51 32.13 32.39 33.22 34.33 34.30 33.89 33.73 32.73 32.55 33.25 33.38 33.17 32.47 32.38 32.15 32.66 33.88 34.76 35.72 35.16 36.41
25.29 31.75 29.64 25.25 30.46 31.86 32.93 34.39 33.93 29.02 32.71 35.74 32.12 31.41 31.09 32.35 32.01 30.87 30.41 30.03 29.97 30.73 31.20 31.10 31.95 33.37 32.84 33.30 33.50 32.88 32.34 32.45 32.72 32.93 32.50 32.39 31.96 30.74 29.92 30.12 31.61 31.93 33.04 33.24
26.22 27.61 18.19 30.84 35.70 34.92 32.09 33.18 34.07 34.15 33.77 33.37 31.40 30.71 30.32 30.96 29.88 28.63 29.11 29.22 29.47 30.53 31.21 31.58 32.85 32.53 32.81 32.56 32.06 31.81 31.46 31.64 32.53 32.48 32.45 32.68 32.23 30.83 29.60 28.80 28.08 28.23 29.43 31.27
23.89 23.67 28.81 30.68 32.22 29.60 28.13 28.64 31.31 31.06 32.57 33.14 31.83 29.79 27.56 29.22 29.31 28.65 29.65 31.01 30.40 31.43 31.90 33.02 31.79 32.72 32.46 31.11 31.08 30.99 30.70 30.79 31.94 32.32 31.79 32.33 31.76 31.61 31.46 29.69 28.33 27.48 27.74 28.01
27.39 22.47 20.26 28.78 33.78 36.72 33.97 24.69 30.13 29.67 28.94 30.25 32.29 26.65 23.87 28.06 29.55 29.51 30.74 31.47 31.06 31.45 31.89 31.67 32.24 33.25 31.31 30.64 30.16 29.77 30.46 30.41 31.39 32.33 31.20 31.09 31.85 31.68 32.15 32.09 30.97 30.11 28.14 28.09
26.70 25.35 25.82 31.77 34.83 36.11 23.70 23.35 28.82 28.04 28.01 31.36 26.81 27.14 27.11 28.01 28.29 30.27 31.04 31.37 32.41 32.00 31.02 31.17 32.39 32.47 31.43 30.84 29.93 31.14 31.74 31.28 30.51 30.80 30.87 30.30 30.70 31.67 31.83 31.86 30.98 29.82 29.10 29.65
28.62 25.70 22.05 33.23 33.92 28.20 28.95 30.88 29.00 27.94 28.67 26.80 27.20 26.08 25.73 26.34 26.65 28.16 29.77 30.96 31.51 30.31 29.95 30.76 31.60 31.47 30.49 31.12 31.97 33.48 32.29 31.61 30.00 29.25 29.81 29.85 28.19 28.49 29.30 29.75 28.67 29.02 27.74 27.28
27.40 26.34 30.06 31.59 29.77 31.59 33.48 30.24 28.87 27.57 27.93 27.68 25.93 24.76 25.79 24.98 25.90 26.80 28.43 29.46 29.90 29.25 28.46 29.33 30.05 30.08 28.49 30.36 32.35 31.96 32.07 31.44 31.37 29.87 28.80 28.40 26.74 25.67 25.69 26.61 26.80 25.14 25.17 24.85
29.52 28.83 28.48 29.54 30.95 31.28 31.43 29.19 29.49 29.38 28.25 27.31 24.76 25.34 25.25 25.54 25.85 25.78 26.69 26.83 28.47 27.92 26.19 25.55 27.48 28.35 29.01 30.57 32.08 31.35 29.16 29.76 30.47 30.20 28.96 27.41 27.28 25.90 24.23 23.83 23.60 23.77 22.62 22.02
28.10 29.50 29.77 29.82 30.30 29.88 29.16 29.66 28.78 29.13 28.15 27.00 26.89 26.51 26.14 25.39 25.22 25.60 25.85 26.33 26.11 25.29 24.33 23.99 24.89 26.02 27.96 29.40 30.21 29.54 29.40 28.18 28.80 28.92 28.80 27.52 25.18 24.88 24.06 23.82 23.76 22.37 22.44 22.95
31.31 32.42 32.39 29.54 30.32 30.87 28.72 28.05 28.90 28.31 27.73 28.30 27.28 25.94 26.34 25.60 25.73 24.86 24.16 24.66 23.85 23.69 22.82 22.70 22.72 23.40 25.62 28.02 28.70 28.11 26.92 27.47 27.09 27.40 27.40 27.47 27.23 25.67 26.81 26.36 26.16 25.53 25.30 24.28
33.57 35.54 32.83 31.51 31.86 31.72 29.81 29.94 30.34 29.51 29.25 27.56 28.30 27.60 26.55 25.74 25.70 25.62 24.62 23.60 21.99 20.90 21.09 20.89 20.33 20.44 23.35 25.40 27.53 26.45 26.19 27.01 26.81 26.48 26.42 26.02 25.99 25.44 24.08 25.98 26.61 26.05 25.96 25.72
34.75 32.76 28.68 30.36 28.56 31.35 31.17 30.90 31.05 30.51 30.09 29.46 29.04 29.13 27.65 26.34 25.88 24.23 22.85 23.12 22.35 20.30 19.03 18.64 17.73 17.69 21.01 22.68 26.11 23.78 25.36 25.91 27.40 26.71 26.40 26.39 26.03 25.54 25.17 23.75 22.61 22.43 23.46 23.56
33.28 35.48 33.11 33.16 32.55 31.40 31.28 30.67 28.86 27.95 28.55 28.58 29.64 28.84 27.63 25.18 23.29 22.72 23.76 24.14 22.30 19.74 18.00 17.82 15.77 16.52 19.48 20.55 22.32 27.75 26.33 24.87 26.35 27.09 26.10 25.42 25.82 25.39 24.71 23.86 22.82 21.68 19.09 18.66
34.07 33.67 32.85 31.63 30.90 30.58 30.29 29.48 28.07 27.48 28.01 27.57 26.81 26.14 25.65 24.06 22.10 20.84 20.15 19.25 18.35 16.12 16.76 14.18 16.96 17.31 18.66 19.24 20.25 25.44 25.97 23.73 23.06 25.46 25.10 24.09 23.91 23.70 22.93 22.57 21.71 21.29 17.84 16.59
31.12 29.67 30.64 29.53 29.56 29.73 29.71 30.44 29.51 28.16 27.55 26.48 25.49 25.86 24.51 22.67 20.81 18.39 17.58 17.75 15.47 14.57 14.86 14.80 14.81 15.52 16.47 17.77 19.71 24.32 24.38 24.11 21.10 24.08 23.35 22.84 22.35 22.35 22.08 21.41 20.43 19.83 19.81 16.22
35.34 34.29 33.77 32.47 30.89 30.27 30.04 30.16 29.14 28.35 26.40 23.93 20.70 18.60 16.30 16.44 15.71 14.42 14.94 16.30 16.00 13.13 15.92 15.17 16.13 17.39 16.88 17.76 19.43 23.18 22.76 22.53 22.55 21.90 21.92 20.74 21.30 21.44 21.42 20.41 20.12 19.77 19.39 19.38
35.38 34.22 33.83 32.53 31.98 30.29 28.98 27.73 24.66 21.75 20.27 19.70 18.39 16.76 16.35 15.67 16.66 16.49 17.57 15.84 15.83 16.11 16.12 16.70 19.50 19.66 19.51 19.20 19.76 22.47 21.48 20.90 20.84 20.53 20.22 18.38 19.34 19.25 19.63 19.51 19.00 19.03 19.56 18.92
33.67 33.49 32.17 31.32 30.36 28.54 24.48 21.89 21.88 20.52 20.39 18.43 16.17 15.18 14.86 13.13 13.78 13.85 16.73 15.38 15.62 16.74 18.65 18.66 20.31 20.71 19.51 19.98 16.16 21.04 20.17 19.51 18.88 18.50 18.36 17.88 17.57 17.20 17.52 16.81 17.60 17.86 18.58 18.89
31.06 28.56 26.73 25.30 23.68 22.94 22.43 21.95 20.02 18.16 17.55 16.53 17.70 15.74 15.36 15.56 14.46 13.49 20.10 20.55 19.10 17.99 19.02 16.35 18.41 17.74 18.86 16.03 17.95 20.50 19.67 18.69 17.80 17.35 17.07 16.60 16.22 15.98 15.71 15.60 15.58 16.16 16.09 16.13
28.22 25.86 23.91 22.58 22.49 21.74 21.23 20.77 19.18 17.31 17.90 16.80 14.45 14.38 14.68 16.58 15.56 17.51 16.09 19.91 20.35 12.12 19.00 21.70 18.92 11.63 14.66 11.88 19.67 20.10 19.26 18.53 18.05 18.17 17.16 16.66 16.03 14.60 14.90 14.47 13.95 13.95 13.95 15.13
24.93 23.58 22.65 21.73 20.75 21.64 21.18 18.36 17.32 17.76 15.88 14.13 14.32 17.64 21.38 22.90 23.63 22.35 20.85 21.28 22.77 14.82 20.74 19.46 12.78 10.89 10.64 16.72 19.11 19.71 18.64 17.43 17.04 16.94 17.45 16.94 17.00 16.57 15.08 13.77 13.58 13.28 14.14 13.27
23.80 22.82 22.11 23.53 20.83 18.80 16.96 18.00 19.41 18.92 17.79 19.06 18.68 17.39 21.78 23.41 25.28 25.02 22.95 17.80 14.81 17.23 20.07 19.49 15.69 11.95 9.28 17.73 19.54 17.36 16.52 16.27 16.01 15.14 14.90 13.29 14.70 14.52 15.29 16.04 14.87 13.53 13.42 12.56
23.53 22.95 21.99 20.36 20.99 20.70 20.52 21.51 21.21 20.84 20.87 22.07 21.26 20.98 22.31 24.18 23.05 22.91 23.18 22.69 20.07 17.09 20.67 16.52 13.48 11.60 17.75 17.45 15.69 15.05 15.53 15.09 14.37 13.43 11.89 11.30 11.56 11.44 11.72 10.67 10.91 10.61 13.25 12.76
23.54 23.04 22.77 24.27 25.09 24.01 23.67 23.34 22.13 22.81 23.48 23.12 23.85 24.53 24.57 24.19 23.59 23.55 22.87 19.32 21.16 18.68 20.29 20.05 17.99 16.37 16.18 14.25 13.41 13.66 12.86 12.65 11.33 10.08 8.58 9.03 8.51 8.44 7.91 7.03 6.82 7.93 8.48 9.62
25.50 24.53 24.44 25.90 25.56 25.32 24.81 25.24 24.90 24.36 26.47 25.61 23.31 24.08 23.57 23.69 21.25 21.00 19.11 20.89 19.82 19.46 18.60 18.09 17.60 15.39 14.29 12.87 12.48 11.36 10.88 10.19 8.28 6.91 7.69 6.61 5.35 4.86 3.59 3.02 3.64 4.39 5.78 6.27
MSLP
1005.72 1005.48 1005.10 1004.63 1004.60 1004.77 1005.20 1005.68 1006.18 1006.78 1007.36 1008.79 1009.57 1010.17 1011.01 1011.54 1012.16 1013.18 1014.03 1014.81 1015.46 1015.80 1015.93 1016.25 1016.63 1015.56 1015.18 1015.05 1014.62 1014.15 1013.42 1012.79 1011.86 1010.71 1009.53 1008.56 1007.78 1006.50 1005.45 1004.01 1003.33 1002.69 1001.49 1000.32
1006.45 1005.98 1005.83 1005.64 1005.45 1005.52 1005.66 1005.98 1006.43 1007.17 1008.32 1010.29 1011.64 1012.34 1012.94 1013.28 1014.06 1015.07 1015.91 1016.48 1017.24 1017.25 1017.56 1017.86 1016.97 1016.30 1016.04 1015.75 1015.36 1014.84 1014.15 1013.42 1012.53 1011.37 1010.16 1009.52 1008.95 1007.66 1006.62 1005.72 1004.58 1004.94 1003.41 1002.05
1006.65 1006.35 1006.57 1006.59 1006.42 1006.37 1006.58 1006.77 1007.40 1008.30 1010.21 1011.49 1013.13 1014.46 1015.47 1016.05 1016.59 1017.27 1018.05 1018.35 1018.63 1018.82 1018.70 1018.31 1017.81 1017.38 1016.91 1016.47 1016.07 1015.49 1014.98 1014.18 1013.23 1012.21 1011.18 1010.81 1009.86 1008.90 1008.40 1007.66 1006.87 1005.65 1005.41 1004.63
1006.95 1007.29 1007.34 1007.59 1008.25 1008.46 1008.99 1009.90 1010.42 1010.80 1011.90 1013.37 1015.01 1016.56 1017.62 1018.15 1018.55 1019.10 1019.35 1019.61 1019.70 1019.64 1019.36 1019.04 1018.73 1018.23 1017.79 1017.24 1016.73 1016.30 1015.68 1014.96 1013.91 1013.01 1012.53 1011.80 1011.01 1010.60 1009.97 1009.45 1008.72 1007.86 1007.04 1006.68
1007.54 1007.67 1007.97 1008.47 1009.46 1010.51 1010.99 1012.23 1013.12 1013.38 1013.85 1014.88 1016.11 1017.44 1018.91 1019.57 1020.00 1020.26 1020.26 1020.23 1020.40 1020.41 1020.12 1019.78 1019.38 1018.90 1018.46 1017.99 1017.44 1016.98 1016.22 1015.60 1014.80 1014.45 1013.71 1012.99 1012.31 1011.88 1011.37 1010.81 1010.35 1009.76 1009.34 1008.65
1008.11 1008.25 1008.62 1010.13 1010.46 1011.07 1012.30 1013.52 1014.78 1015.43 1015.80 1016.03 1016.72 1017.72 1019.65 1020.45 1020.73 1020.87 1020.89 1020.85 1020.86 1020.82 1020.54 1020.09 1019.66 1019.32 1018.96 1018.44 1018.10 1017.55 1017.08 1016.32 1016.18 1015.52 1014.82 1014.07 1013.44 1012.84 1012.29 1011.81 1011.52 1011.13 1010.67 1010.30
1008.58 1009.02 1010.68 1011.35 1011.49 1012.25 1013.60 1015.58 1016.08 1016.76 1017.04 1016.49 1017.76 1018.96 1020.40 1021.03 1021.39 1021.37 1021.26 1021.18 1021.14 1020.92 1020.52 1020.31 1019.98 1019.77 1019.27 1018.81 1018.59 1018.31 1017.60 1017.46 1017.23 1016.69 1015.94 1015.38 1014.69 1014.00 1013.60 1013.12 1012.75 1012.25 1011.90 1011.57
1009.30 1010.21 1011.80 1012.75 1012.72 1013.77 1015.26 1015.98 1016.95 1017.68 1018.07 1018.56 1019.33 1020.32 1021.02 1021.53 1021.79 1021.79 1021.57 1021.37 1021.26 1021.06 1020.90 1020.82 1020.40 1019.80 1019.28 1018.86 1018.78 1018.34 1018.20 1018.02 1017.98 1017.60 1017.10 1016.60 1016.16 1015.63 1015.11 1014.47 1014.03 1013.59 1013.39 1013.11
1011.36 1012.38 1013.60 1014.30 1014.81 1015.55 1015.93 1016.74 1017.78 1018.44 1019.06 1019.61 1020.32 1021.03 1021.53 1021.98 1022.29 1022.42 1022.17 1021.90 1021.71 1021.28 1021.34 1021.37 1021.07 1020.54 1019.90 1019.30 1018.75 1018.66 1018.55 1018.46 1018.30 1018.28 1017.93 1017.68 1017.34 1017.09 1016.62 1016.14 1015.65 1015.67 1015.25 1014.96
1011.80 1013.43 1014.38 1015.22 1015.90 1016.38 1016.94 1017.71 1018.41 1019.07 1019.70 1020.35 1020.99 1021.59 1022.05 1022.51 1022.81 1022.86 1022.77 1022.47 1022.16 1022.08 1022.26 1022.29 1021.97 1021.50 1020.98 1020.25 1019.45 1019.22 1019.30 1019.05 1018.75 1018.57 1018.69 1018.74 1018.40 1018.34 1018.21 1017.79 1017.42 1017.10 1016.86 1016.73
1012.53 1013.87 1014.95 1015.72 1016.51 1017.23 1017.83 1018.46 1018.96 1019.55 1020.19 1020.80 1021.35 1021.93 1022.37 1022.78 1023.14 1023.39 1023.58 1023.56 1023.44 1023.43 1023.44 1023.41 1023.27 1022.82 1022.16 1021.45 1020.91 1020.25 1020.03 1020.00 1019.65 1019.44 1019.29 1019.38 1019.59 1019.51 1019.33 1019.27 1019.01 1018.64 1018.41 1018.16
1011.35 1012.65 1013.97 1015.61 1016.76 1017.55 1018.09 1018.72 1019.21 1019.64 1020.36 1021.07 1021.67 1022.21 1022.69 1023.12 1023.55 1023.98 1024.34 1024.49 1024.53 1024.62 1024.76 1024.79 1024.61 1024.17 1023.51 1022.81 1022.23 1021.59 1021.21 1020.95 1020.84 1020.52 1020.26 1020.03 1019.81 1019.99 1020.10 1019.94 1019.65 1019.50 1019.46 1019.19
1012.43 1013.34 1014.66 1015.96 1016.86 1017.54 1018.13 1018.58 1019.04 1019.64 1020.32 1021.03 1021.74 1022.35 1022.96 1023.46 1023.91 1024.23 1024.56 1025.03 1025.37 1025.66 1025.82 1025.79 1025.68 1025.45 1025.06 1024.36 1023.39 1022.89 1022.57 1022.13 1021.74 1021.43 1021.13 1020.91 1020.72 1020.56 1020.40 1020.42 1020.20 1020.16 1020.12 1019.87
1013.40 1014.36 1015.69 1016.26 1016.87 1017.62 1018.25 1018.74 1019.32 1019.91 1020.50 1021.16 1021.73 1022.36 1022.97 1023.51 1023.98 1024.46 1024.92 1025.38 1025.88 1026.29 1026.59 1026.72 1026.59 1026.32 1025.74 1025.08 1024.36 1023.78 1023.39 1022.97 1022.57 1022.29 1021.97 1021.65 1021.35 1021.12 1020.89 1020.67 1020.58 1020.70 1020.82 1020.70
1014.02 1014.14 1015.14 1015.88 1016.74 1017.55 1018.35 1018.85 1019.44 1020.14 1020.76 1021.32 1021.93 1022.46 1023.18 1023.90 1024.60 1025.13 1025.38 1025.76 1026.43 1027.10 1027.58 1027.75 1027.64 1027.42 1026.74 1025.94 1025.07 1024.12 1023.89 1023.53 1023.05 1022.60 1022.30 1022.03 1021.76 1021.62 1021.45 1021.29 1021.28 1021.52 1021.70 1021.47
1014.12 1014.66 1015.47 1016.05 1016.77 1017.69 1018.34 1018.96 1019.60 1020.44 1021.21 1021.95 1022.69 1023.35 1024.01 1024.81 1025.57 1026.22 1026.76 1027.25 1027.42 1027.96 1028.15 1028.16 1028.01 1027.63 1027.05 1026.30 1025.42 1024.36 1024.02 1023.80 1023.42 1023.04 1022.83 1022.71 1022.52 1022.24 1022.14 1022.06 1022.03 1022.25 1022.47 1022.46
1014.22 1014.96 1015.65 1016.38 1017.11 1017.84 1018.48 1019.09 1019.92 1020.91 1021.96 1022.77 1023.64 1024.08 1024.69 1025.44 1026.31 1027.07 1027.77 1028.19 1028.43 1028.46 1028.55 1028.48 1028.12 1027.51 1027.18 1026.55 1025.83 1024.98 1024.71 1024.38 1024.01 1023.66 1023.57 1023.46 1023.25 1022.95 1022.85 1022.79 1022.80 1022.79 1023.13 1023.06
1014.53 1015.24 1015.94 1016.65 1017.41 1018.19 1018.96 1019.73 1020.75 1021.71 1022.80 1023.90 1024.88 1025.56 1026.04 1026.54 1027.43 1028.09 1028.21 1028.28 1028.55 1028.64 1028.53 1028.39 1027.91 1027.57 1027.23 1026.90 1026.33 1025.63 1025.31 1025.02 1024.65 1024.44 1024.39 1024.35 1024.08 1023.79 1023.68 1023.55 1023.49 1023.42 1023.35 1023.26
1015.11 1015.82 1016.47 1017.27 1018.08 1018.96 1019.99 1021.00 1022.26 1023.31 1024.32 1025.06 1025.81 1026.65 1027.16 1027.58 1028.01 1028.34 1028.22 1028.02 1028.25 1028.51 1028.72 1028.43 1028.00 1027.70 1027.58 1027.24 1026.80 1026.25 1026.09 1025.87 1025.50 1025.29 1025.27 1025.13 1024.92 1024.74 1024.51 1024.33 1024.15 1023.99 1023.81 1023.75
1016.00 1016.71 1017.44 1018.28 1019.21 1020.19 1021.47 1022.62 1023.51 1024.50 1025.25 1025.92 1026.70 1027.40 1027.73 1028.15 1028.26 1028.32 1028.26 1028.65 1028.91 1028.94 1028.85 1028.65 1028.20 1027.97 1028.06 1027.75 1027.56 1027.01 1026.81 1026.57 1026.29 1026.14 1026.04 1025.90 1025.73 1025.51 1025.29 1025.07 1024.88 1024.68 1024.46 1024.28
1017.38 1018.17 1018.95 1019.79 1020.80 1021.77 1022.70 1023.50 1024.40 1025.29 1026.06 1026.56 1027.00 1027.47 1027.79 1028.02 1028.21 1028.15 1027.99 1028.21 1028.68 1028.86 1028.76 1028.78 1028.83 1028.94 1028.71 1028.70 1028.11 1027.61 1027.30 1027.05 1026.87 1026.74 1026.58 1026.42 1026.24 1026.07 1025.92 1025.74 1025.54 1025.30 1025.11 1024.93
1018.76 1019.45 1020.23 1021.01 1021.77 1022.76 1023.73 1024.37 1024.99 1025.76 1026.34 1026.88 1027.24 1027.46 1027.72 1027.91 1027.77 1027.70 1027.93 1028.05 1028.39 1028.63 1028.62 1028.51 1029.08 1029.54 1029.40 1029.35 1028.55 1028.00 1027.68 1027.44 1027.25 1027.04 1026.83 1026.61 1026.45 1026.33 1026.20 1026.01 1025.90 1025.70 1025.51 1025.29
1019.75 1020.43 1021.16 1021.86 1022.52 1023.31 1024.20 1024.94 1025.49 1025.94 1026.52 1027.03 1027.31 1027.45 1027.21 1026.88 1026.80 1026.95 1027.61 1028.06 1028.07 1028.62 1028.62 1029.04 1029.42 1029.51 1029.51 1029.16 1028.67 1028.24 1028.04 1027.88 1027.71 1027.48 1027.22 1027.00 1026.75 1026.41 1026.11 1025.88 1025.73 1025.65 1025.58 1025.48
1020.35 1021.07 1021.72 1022.30 1023.12 1023.79 1024.35 1025.09 1025.47 1026.02 1026.38 1026.81 1027.07 1027.21 1027.02 1026.80 1026.82 1027.07 1027.70 1028.07 1028.40 1028.67 1028.71 1029.08 1029.44 1029.58 1029.69 1029.16 1028.74 1028.61 1028.48 1028.35 1028.20 1028.08 1027.87 1027.68 1027.43 1027.06 1026.60 1026.35 1025.58 1025.26 1025.20 1025.24
1020.67 1021.29 1021.92 1022.51 1022.73 1023.15 1023.86 1024.42 1025.00 1025.54 1026.02 1026.22 1026.72 1027.04 1026.94 1026.95 1027.37 1027.72 1027.94 1028.20 1028.58 1028.68 1028.82 1029.19 1029.51 1029.48 1029.24 1029.35 1029.34 1029.19 1028.99 1028.83 1028.81 1028.72 1028.69 1028.46 1028.29 1028.04 1027.76 1027.51 1027.11 1026.78 1026.02 1025.47
1020.64 1021.13 1021.62 1021.69 1021.90 1022.70 1023.33 1023.89 1024.37 1025.03 1025.33 1025.83 1026.27 1026.57 1027.01 1027.36 1027.62 1027.81 1028.14 1028.38 1028.54 1028.78 1029.02 1029.12 1029.35 1029.55 1029.59 1029.83 1029.89 1029.78 1029.65 1029.58 1029.62 1029.63 1029.52 1029.40 1029.27 1028.99 1028.79 1028.59 1028.29 1027.85 1027.40 1026.91
1020.38 1020.79 1021.09 1021.27 1021.94 1022.54 1023.15 1023.50 1024.02 1024.61 1024.95 1025.40 1026.07 1026.69 1027.18 1027.57 1028.03 1028.12 1028.42 1028.67 1028.92 1029.19 1029.36 1029.46 1029.58 1029.85 1030.10 1030.10 1030.17 1030.23 1030.23 1030.25 1030.41 1030.45 1030.27 1030.17 1030.18 1030.06 1030.01 1029.77 1029.38 1028.91 1028.31 1027.83
Wind_Speed
8 2 3 4 5 6 8 8 8 8 8 13 14 13 12 11 11 12 12 12 13 13 13 14 13 13 13 13 14 15 15 15 15 16 16 17 17 17 16 15 14 15 17 15
10 9 6 8 7 8 9 10 11 10 4 15 13 13 12 14 13 12 11 12 12 12 13 13 14 14 13 14 14 13 14 15 15 16 17 18 16 17 17 17 17 13 16 16
10 7 2 7 6 8 7 6 8 6 12 9 12 11 11 9 9 9 9 10 10 11 12 13 12 13 13 13 13 13 13 15 16 15 17 16 17 18 18 18 16 17 16 15
1 5 5 10 8 4 4 11 11 9 10 10 10 10 9 10 8 7 8 9 10 10 11 13 11 13 12 12 13 13 13 14 16 16 15 15 16 16 16 15 17 17 18 17
3 8 7 8 7 3 2 6 8 7 7 9 12 13 10 8 9 8 8 8 7 9 10 7 10 11 10 12 12 13 14 15 15 15 15 14 15 15 13 14 15 17 16 18
5 6 6 7 5 8 5 5 7 6 6 6 8 5 6 8 8 8 8 7 8 6 6 8 8 7 10 11 12 13 14 15 14 13 15 15 13 14 11 10 12 11 16 18
7 6 4 1 4 1 4 5 7 5 6 1 4 7 10 7 8 7 8 8 6 7 8 10 9 7 6 7 9 8 11 12 14 15 14 15 15 13 13 12 13 14 15 14
7 8 5 8 3 3 5 7 9 6 9 12 12 11 10 9 8 9 9 9 9 8 9 8 9 9 11 5 2 4 6 10 11 14 12 13 16 15 15 14 14 14 14 13
5 4 5 8 10 5 5 9 8 8 8 9 10 9 9 9 9 7 9 8 8 8 11 11 12 13 13 14 8 9 8 9 9 10 12 12 14 14 12 13 12 12 11 11
6 6 6 7 8 8 9 10 9 10 10 10 10 8 9 7 6 7 8 9 10 11 13 12 12 14 13 14 14 11 12 12 9 9 8 10 9 10 10 11 11 11 11 11
5 8 9 6 8 10 11 10 11 11 11 11 10 9 9 8 9 7 7 7 9 10 10 12 13 14 14 15 13 12 11 11 11 10 10 7 9 8 8 10 13 10 10 9
1 15 2 12 10 12 12 11 11 12 12 11 10 10 9 8 8 7 7 8 8 10 10 11 12 12 14 14 14 12 11 9 10 9 9 9 9 5 15 16 20 21 21 16
4 11 12 13 11 11 12 11 12 12 12 11 10 9 9 8 7 9 8 8 8 8 9 9 10 10 10 12 10 12 10 10 8 9 8 8 7 7 7 5 16 18 19 20
15 18 11 14 8 12 12 12 13 12 11 10 10 10 9 8 8 8 9 8 9 9 9 9 10 11 13 13 11 5 8 10 6 5 6 6 5 5 5 6 6 7 15 19
13 0 13 12 15 14 13 12 12 11 10 9 8 8 9 9 9 9 9 7 9 9 8 6 6 7 10 10 11 3 4 5 6 4 4 6 5 5 5 6 6 6 7 9
6 13 15 14 14 13 13 12 11 10 9 9 8 8 9 10 10 10 10 10 8 7 7 5 7 6 7 9 12 7 7 7 6 6 6 7 7 6 7 7 7 6 6 7
13 13 12 13 12 12 11 10 10 10 9 9 9 9 10 10 9 9 6 4 4 3 4 4 4 4 4 9 11 7 7 8 9 7 8 7 7 7 7 6 6 6 4 4
10 11 10 11 10 10 9 9 10 10 9 11 9 9 9 8 7 3 2 2 5 4 4 4 5 4 4 8 10 7 7 8 8 8 8 8 8 8 8 7 7 7 6 5
10 12 11 10 9 10 10 10 12 12 10 9 9 7 6 5 5 2 2 2 3 5 6 5 9 5 8 8 11 7 8 8 8 8 8 9 8 8 8 7 7 6 6 5
10 9 12 12 11 11 12 10 11 9 8 9 8 6 7 4 3 1 4 6 4 3 3 5 8 8 9 8 12 7 7 8 8 7 7 7 7 7 7 9 8 8 7 6
12 13 13 13 12 12 10 9 10 9 7 5 6 5 6 5 2 0 3 4 5 1 2 3 6 6 7 8 8 5 6 5 6 6 5 5 6 6 6 6 7 7 6 6
10 10 11 11 11 11 9 8 9 8 6 6 6 5 5 5 3 2 1 3 5 1 4 3 5 5 6 8 7 6 6 6 6 5 5 5 4 3 5 4 5 5 5 5
9 10 10 10 10 11 10 8 7 7 7 5 5 4 1 3 3 3 4 1 3 3 4 5 5 4 5 5 6 6 7 7 7 7 7 8 8 7 4 3 2 3 3 3
10 10 10 10 11 11 11 9 10 8 6 6 4 3 2 3 2 3 5 5 5 2 3 4 4 4 5 5 5 6 6 7 7 8 8 10 9 9 9 10 6 3 2 2
10 10 11 10 11 9 11 11 10 9 8 8 7 5 2 4 3 4 4 4 5 2 5 5 4 4 5 7 7 7 7 7 7 7 8 8 9 9 9 10 10 11 11 6
12 8 9 10 8 8 8 8 6 6 6 6 5 5 4 2 3 2 4 3 2 4 5 4 5 4 5 6 6 7 7 7 8 8 8 8 9 9 9 10 10 10 10 10
8 8 7 6 7 7 6 6 7 6 4 5 6 5 4 3 3 3 4 4 5 5 5 5 5 6 5 5 6 7 7 7 7 8 7 7 8 9 9 10 9 9 9 9
Wind_Direction
250 224 313 315 282 242 254 269 260 294 319 57 37 50 51 55 50 45 33 23 17 10 9 5 357 359 2 2 1 356 357 354 356 354 1 4 359 2 359 12 15 9 7 24
251 245 255 275 266 270 280 285 288 284 289 72 53 52 45 36 45 39 25 20 13 12 10 1 1 360 3 4 5 360 359 359 359 4 7 8 3 11 10 13 22 19 32 28
242 213 273 273 282 280 302 319 324 271 55 47 64 57 41 43 45 43 36 26 18 12 14 7 4 359 6 7 5 8 2 3 7 9 15 9 11 17 18 14 14 24 30 25
247 134 219 89 64 25 2 53 24 31 36 70 100 90 64 39 52 47 35 35 25 19 15 16 9 8 12 11 13 11 10 9 11 12 14 13 18 21 23 22 25 25 26 25
195 221 117 156 72 84 55 82 25 1 6 99 126 116 80 64 62 51 41 36 45 25 14 17 18 13 16 16 18 14 17 13 12 11 12 15 18 19 25 31 34 33 31 29
199 252 229 101 56 106 133 168 39 23 340 317 176 232 93 66 57 55 50 44 41 27 16 16 11 10 15 29 23 22 19 22 14 12 17 17 16 15 15 23 33 38 43 38
225 235 100 230 13 42 234 74 71 34 16 293 99 60 100 93 69 49 48 46 49 30 34 24 10 356 5 24 31 20 28 32 24 18 24 21 20 17 19 24 32 33 35 33
243 222 186 10 227 288 87 95 93 77 78 88 100 102 99 81 62 40 29 51 39 41 38 30 17 15 17 23 341 12 29 35 38 31 28 27 25 23 19 25 26 26 29 32
8 52 90 63 85 98 83 106 102 107 100 103 101 98 89 82 63 40 31 41 46 50 46 30 25 20 19 6 42 31 33 35 37 45 35 33 34 28 25 23 25 28 26 26
189 125 112 101 96 103 101 110 110 104 101 101 104 99 92 86 77 59 37 37 38 43 41 34 23 23 17 14 11 36 32 17 31 36 56 36 34 38 33 30 26 23 33 27
84 115 120 129 127 122 117 113 110 112 111 114 119 117 111 95 80 67 52 43 45 40 39 31 28 19 18 12 17 19 29 30 17 21 23 75 61 41 50 48 47 33 25 28
336 158 55 137 143 136 129 126 128 119 112 106 104 99 93 86 85 83 70 55 50 46 37 32 27 21 11 14 13 19 17 22 22 17 20 21 22 73 61 65 60 55 45 43
93 93 107 131 140 137 133 137 122 119 117 115 113 109 106 108 106 97 84 75 63 51 39 31 28 11 0 354 10 17 17 10 19 19 15 16 21 24 21 85 73 57 43 35
111 109 126 145 143 139 139 126 123 118 120 125 124 126 126 116 100 87 75 72 68 53 36 31 20 5 352 351 344 11 13 4 10 17 6 8 10 15 18 21 22 34 29 14
148 128 147 135 139 136 135 137 129 123 120 114 112 116 110 100 84 63 46 90 80 65 48 25 29 1 340 337 333 40 33 10 350 5 7 8 9 13 18 19 21 42 29 13
152 128 138 142 135 141 140 142 130 128 121 113 106 102 103 101 94 80 66 43 56 47 41 21 18 340 345 343 338 14 15 23 355 13 20 22 2 11 18 16 16 42 35 13
141 147 145 144 146 149 148 141 134 132 130 121 125 126 118 105 92 79 72 78 72 60 45 27 334 320 356 357 342 14 13 6 360 20 13 14 0 9 19 15 19 22 64 355
158 145 146 144 141 143 136 119 122 125 116 95 85 79 70 71 87 92 121 201 145 79 48 4 328 349 22 4 343 17 14 8 3 18 18 3 6 8 9 9 12 12 13 17
140 142 138 134 126 113 109 103 90 95 99 105 102 97 99 103 109 130 202 17 35 63 32 358 322 26 24 4 349 27 15 9 4 18 16 1 10 2 358 5 2 1 2 9
124 113 112 106 102 107 96 101 107 107 104 105 108 120 111 117 134 181 81 75 68 57 335 346 5 25 30 4 348 21 16 8 8 7 9 5 4 355 358 0 360 356 355 3
103 99 99 96 93 97 106 111 118 117 117 134 134 129 122 120 145 332 213 147 128 198 313 297 63 13 22 355 324 14 1 4 359 355 355 354 352 355 352 355 352 352 355 353
113 110 107 109 111 110 110 121 113 121 128 99 97 111 128 161 179 188 88 28 123 211 319 57 67 48 6 338 325 345 351 354 342 341 339 334 334 339 335 340 342 351 336 341
119 120 121 123 130 129 114 117 124 122 120 129 140 165 224 62 33 20 130 88 78 57 343 74 96 58 351 306 322 350 358 354 350 347 346 350 342 330 304 289 291 303 320 335
128 129 129 122 117 130 132 143 141 136 131 143 109 41 11 35 35 70 118 113 112 60 313 85 80 7 325 297 355 8 357 353 356 358 354 357 350 345 334 344 308 254 231 285
132 135 128 149 150 144 141 147 136 139 159 144 149 162 172 70 41 52 40 72 111 328 65 115 110 344 9 17 9 356 356 2 7 5 6 355 352 353 5 357 354 1 357 344
151 151 160 166 148 141 148 151 146 156 168 149 137 110 100 77 90 37 84 62 43 50 41 51 46 23 24 24 357 6 5 7 15 8 1 356 358 355 0 358 355 352 353 351
152 151 160 148 131 144 155 171 154 155 158 144 127 122 110 97 100 53 57 58 43 41 38 30 28 30 30 9 16 10 6 6 20 6 356 360 3 356 1 352 346 339 339 342